Location: Aniagüita
(10.0946°N, 66.9708°W)
Time: 09:32:07
(UTC+00:00)

ARIANE 5 R/B - Visible Passes

Search period start: 30 November 2022 00:00
Search period end: 10 December 2022 00:00
Orbit: 414 x 35419 km, 7.0° (Epoch: 29 November)

Date Brightness Start Highest point End Pass type
(mag) Time Alt. Az. Time Alt. Az. Time Alt. Az.
30 Nov 5.4 06:08:27 10° W 07:48:32 50° WSW 15:52:39 10° ESE visible
01 Dec 6.7 02:45:36 10° W 03:15:19 81° S 12:39:29 10° ESE visible
01 Dec 4.3 23:32:33 10° W 23:39:05 79° S 09:16:52 10° ESE visible
03 Dec 8.1 07:47:39 10° W 09:11:34 27° W 12:19:45 10° W visible
04 Dec 6.7 04:08:50 10° W 05:41:58 75° SW 14:01:01 10° ESE visible
05 Dec 5.6 00:52:57 10° W 01:04:57 81° S 10:44:26 10° ESE visible
06 Dec 9.4 02:30:42 10° E 05:35:59 26° ESE 07:02:42 10° ESE visible
07 Dec 5.6 05:35:38 10° W 07:16:23 54° WSW 15:21:34 10° ESE visible
08 Dec 6.7 02:14:07 10° W 02:39:36 80° S 12:08:01 10° ESE visible
08 Dec 4.2 23:01:19 10° W 23:07:16 78° S 08:43:44 10° ESE visible
